Temp
-8 -8 -8 -9 -9 -9 -9 -10 -10 -10 -10 -10 -10 -11 -10 -11 -11 -11 -11 -11 -12 -12 -12 -12 -12 -12 -13 -13 -12 -12 -12 -12
-8 -9 -9 -9 -9 -10 -10 -10 -10 -10 -10 -10 -10 -11 -11 -11 -11 -11 -11 -11 -12 -12 -12 -12 -12 -12 -12 -13 -12 -12 -12 -12
-9 -9 -9 -9 -9 -10 -10 -10 -11 -11 -11 -10 -11 -11 -11 -11 -11 -11 -11 -11 -12 -12 -12 -13 -12 -12 -12 -12 -12 -12 -12 -12
-10 -10 -10 -10 -10 -10 -10 -10 -11 -11 -11 -11 -11 -11 -11 -11 -11 -11 -11 -12 -12 -12 -13 -13 -13 -12 -12 -12 -13 -12 -12 -12
-11 -10 -10 -10 -10 -10 -10 -11 -11 -11 -11 -11 -11 -11 -11 -11 -11 -11 -11 -12 -12 -12 -13 -13 -13 -13 -12 -12 -12 -13 -12 -12
-11 -11 -11 -10 -10 -11 -11 -11 -11 -11 -12 -12 -11 -11 -12 -11 -11 -11 -12 -12 -12 -13 -13 -13 -13 -12 -12 -12 -12 -12 -12 -12
-11 -11 -11 -11 -11 -11 -10 -11 -11 -11 -12 -12 -12 -12 -12 -12 -11 -12 -12 -12 -13 -13 -13 -13 -13 -13 -13 -13 -13 -13 -12 -12
-10 -11 -11 -11 -11 -11 -11 -11 -12 -11 -12 -12 -12 -12 -12 -12 -12 -12 -12 -12 -13 -13 -13 -13 -13 -13 -13 -13 -13 -13 -13 -12
-10 -11 -11 -11 -11 -12 -11 -11 -12 -11 -11 -12 -12 -12 -12 -12 -12 -12 -12 -12 -13 -13 -13 -13 -13 -13 -13 -13 -13 -13 -13 -13
-12 -11 -11 -11 -11 -12 -12 -12 -11 -12 -12 -12 -12 -12 -12 -12 -12 -12 -13 -13 -13 -13 -13 -13 -13 -13 -13 -13 -13 -13 -13 -12
-12 -11 -10 -12 -12 -12 -11 -12 -12 -12 -11 -12 -12 -12 -13 -12 -12 -12 -13 -13 -13 -13 -13 -13 -13 -13 -13 -13 -13 -13 -13 -13
-11 -11 -11 -12 -12 -12 -11 -12 -12 -12 -11 -12 -12 -13 -13 -13 -13 -13 -13 -13 -13 -13 -13 -13 -13 -13 -13 -13 -13 -13 -13 -13
-11 -12 -11 -11 -12 -12 -12 -12 -13 -12 -12 -12 -12 -13 -13 -13 -13 -13 -13 -13 -13 -13 -13 -13 -13 -13 -13 -13 -13 -13 -13 -13
-12 -12 -12 -11 -11 -12 -12 -12 -12 -12 -12 -12 -13 -13 -13 -13 -13 -13 -13 -13 -13 -13 -13 -13 -13 -13 -13 -13 -13 -13 -13 -13
-12 -12 -11 -12 -11 -11 -11 -12 -12 -12 -13 -12 -12 -13 -13 -13 -14 -13 -13 -13 -13 -13 -13 -13 -13 -13 -13 -13 -13 -12 -13 -13
-11 -11 -11 -11 -11 -11 -11 -12 -12 -12 -12 -12 -12 -12 -13 -13 -14 -14 -13 -13 -13 -13 -13 -13 -13 -13 -13 -13 -13 -13 -12 -13
-11 -12 -12 -12 -12 -11 -11 -12 -12 -12 -12 -12 -12 -12 -13 -13 -14 -14 -13 -13 -13 -13 -13 -13 -13 -13 -13 -13 -13 -13 -13 -13
-11 -12 -12 -12 -12 -11 -11 -12 -12 -11 -12 -12 -12 -12 -13 -13 -14 -14 -13 -13 -13 -13 -13 -13 -13 -12 -13 -13 -13 -13 -13 -13
-11 -11 -12 -12 -12 -12 -12 -11 -12 -11 -11 -12 -12 -12 -13 -13 -14 -14 -13 -13 -13 -13 -13 -13 -12 -12 -13 -14 -13 -13 -13 -13
-12 -12 -12 -12 -12 -12 -12 -11 -12 -11 -11 -11 -12 -12 -13 -13 -14 -14 -13 -13 -13 -13 -13 -13 -13 -13 -13 -14 -13 -13 -13 -14
Height
5818 5818 5818 5818 5818 5816 5817 5816 5816 5816 5815 5814 5813 5813 5811 5809 5808 5807 5807 5806 5804 5804 5804 5804 5804 5802 5802 5804 5805 5809 5812 5816
5813 5813 5814 5814 5815 5814 5814 5813 5813 5813 5812 5811 5810 5808 5808 5806 5805 5804 5803 5802 5801 5800 5801 5801 5801 5799 5800 5803 5804 5805 5809 5814
5809 5809 5809 5809 5810 5811 5812 5811 5809 5809 5809 5808 5806 5805 5804 5802 5801 5801 5800 5798 5798 5797 5797 5798 5798 5799 5798 5800 5801 5804 5807 5809
5804 5805 5805 5804 5805 5806 5807 5808 5806 5805 5804 5803 5802 5801 5799 5798 5796 5796 5796 5795 5795 5794 5794 5794 5795 5794 5795 5797 5798 5800 5802 5799
5799 5800 5801 5800 5801 5802 5802 5804 5804 5802 5801 5800 5798 5796 5795 5794 5793 5791 5791 5791 5791 5790 5789 5790 5791 5790 5791 5792 5793 5796 5796 5791
5794 5795 5796 5796 5797 5798 5797 5798 5799 5799 5798 5796 5795 5793 5791 5789 5788 5786 5787 5787 5787 5787 5786 5785 5786 5785 5786 5788 5788 5789 5790 5792
5790 5790 5792 5791 5791 5792 5792 5794 5793 5796 5794 5792 5791 5790 5787 5786 5784 5783 5782 5782 5781 5783 5782 5781 5780 5781 5781 5782 5783 5783 5784 5784
5781 5785 5785 5786 5785 5786 5786 5786 5787 5788 5789 5788 5786 5786 5784 5783 5780 5778 5777 5777 5776 5777 5777 5776 5776 5776 5776 5776 5777 5777 5779 5780
5769 5778 5779 5780 5779 5780 5780 5780 5783 5783 5783 5782 5781 5780 5779 5779 5777 5775 5772 5773 5773 5773 5772 5771 5771 5771 5770 5770 5770 5771 5774 5775
5766 5766 5773 5774 5772 5775 5774 5774 5775 5777 5777 5776 5776 5775 5775 5774 5773 5771 5769 5767 5768 5769 5768 5767 5766 5765 5763 5763 5765 5767 5768 5772
5762 5759 5766 5769 5766 5766 5768 5769 5768 5770 5771 5772 5770 5770 5770 5770 5768 5768 5766 5764 5764 5763 5762 5761 5759 5759 5757 5759 5761 5762 5764 5766
5752 5755 5756 5762 5763 5760 5761 5763 5765 5763 5764 5766 5766 5765 5765 5764 5762 5762 5762 5760 5759 5758 5756 5756 5753 5751 5751 5753 5754 5755 5757 5761
5745 5745 5747 5750 5754 5754 5754 5755 5758 5757 5758 5759 5759 5759 5759 5758 5757 5756 5756 5754 5754 5753 5751 5749 5748 5746 5745 5745 5747 5749 5751 5755
5737 5737 5738 5740 5744 5747 5745 5747 5750 5750 5751 5752 5753 5752 5752 5752 5751 5750 5749 5749 5748 5747 5746 5743 5742 5740 5739 5736 5739 5741 5744 5748
5726 5728 5730 5732 5734 5737 5738 5741 5742 5743 5744 5744 5744 5744 5746 5745 5744 5744 5743 5743 5742 5740 5739 5737 5735 5731 5732 5731 5732 5734 5741 5743
5716 5718 5722 5724 5726 5728 5730 5733 5732 5734 5735 5735 5736 5736 5738 5739 5739 5738 5736 5736 5735 5733 5732 5731 5729 5727 5727 5727 5725 5729 5733 5737
5706 5710 5711 5714 5716 5719 5722 5724 5724 5725 5726 5727 5728 5728 5730 5731 5732 5731 5730 5730 5728 5726 5725 5725 5723 5721 5721 5722 5721 5724 5727 5730
5697 5699 5701 5705 5707 5708 5712 5715 5715 5716 5717 5718 5720 5721 5723 5724 5725 5723 5722 5722 5721 5719 5717 5717 5716 5714 5715 5716 5716 5718 5721 5724
5686 5689 5693 5695 5697 5698 5701 5704 5706 5706 5707 5709 5711 5713 5715 5717 5717 5717 5715 5715 5714 5711 5708 5706 5706 5707 5708 5711 5711 5711 5714 5717
5675 5679 5682 5685 5686 5689 5691 5694 5696 5697 5699 5699 5702 5705 5707 5710 5710 5710 5708 5708 5707 5704 5700 5699 5698 5700 5703 5704 5704 5703 5705 5710
Wind_Speed
20 19 20 18 16 15 16 16 16 17 19 19 19 18 19 19 21 20 20 22 20 24 23 21 21 21 20 17 17 20 22 29
24 22 23 21 19 18 18 19 17 17 19 21 20 19 20 20 21 21 21 21 21 23 21 20 18 19 17 17 18 19 20 27
27 27 27 25 23 19 19 21 18 19 19 22 22 22 21 20 21 21 21 22 23 22 18 19 18 20 20 21 18 15 14 21
30 29 29 28 26 24 21 23 19 20 22 23 22 22 22 22 21 22 21 19 23 25 22 21 20 21 21 21 24 18 18 26
31 32 29 31 29 27 26 25 23 21 21 23 23 23 24 23 21 23 22 20 20 21 24 24 24 25 24 22 23 21 25 27
31 31 30 32 31 28 29 29 24 23 22 23 23 24 25 23 22 22 21 21 20 21 24 24 24 25 28 26 24 26 31 28
31 32 30 33 32 29 30 28 29 24 24 24 23 25 25 23 22 21 21 21 23 21 23 22 22 24 26 25 25 27 30 23
35 30 31 33 33 30 30 31 30 27 25 25 25 25 25 25 23 22 21 21 21 20 22 23 24 26 24 27 29 31 30 21
42 31 32 33 35 31 30 33 31 30 28 27 27 26 26 25 24 24 23 22 20 18 21 23 25 27 30 29 27 24 30 25
39 38 30 32 36 31 31 33 32 29 28 30 29 27 27 25 25 26 24 23 22 22 24 26 26 29 28 23 26 28 26 31
36 39 29 29 35 34 31 32 34 32 28 30 32 29 29 26 24 25 26 25 24 25 27 28 29 27 24 24 25 30 32 34
38 37 35 29 31 34 33 32 31 35 32 31 33 31 30 30 25 25 27 28 27 26 28 28 31 31 26 27 27 31 34 31
39 39 35 32 29 32 34 35 30 36 35 33 33 32 33 32 27 26 28 30 30 29 29 32 32 30 29 31 32 30 39 34
42 43 39 36 32 32 36 36 33 36 37 34 32 31 34 32 28 26 28 31 32 30 29 32 31 30 33 29 36 35 37 39
46 44 42 39 36 33 36 33 35 36 35 36 34 34 32 32 30 28 28 31 32 32 29 32 31 28 23 22 30 40 33 36
47 44 40 40 37 37 35 34 36 37 37 36 36 36 31 33 31 28 29 30 32 34 30 29 29 28 26 30 19 30 32 34
48 43 41 42 42 40 37 36 37 37 38 36 35 38 33 33 30 28 28 30 32 35 33 29 31 29 30 25 24 28 26 30
48 45 43 42 42 42 39 37 35 36 39 37 35 37 35 33 30 30 28 29 32 36 35 33 33 30 29 25 25 26 30 29
50 47 43 44 43 41 39 37 36 37 39 39 34 36 35 33 30 30 28 29 32 37 38 35 27 29 31 28 35 31 28 31
52 48 45 44 42 39 38 37 36 36 37 35 32 34 35 33 29 30 29 29 32 36 35 28 24 25 29 29 23 29 27 27
Wind_Direction
270 275 281 284 286 293 297 302 305 302 300 301 302 303 301 300 291 295 289 283 276 272 274 271 276 272 243 250 257 241 231 223
271 274 276 282 284 290 292 294 300 299 296 297 299 302 304 300 299 296 290 283 274 271 278 272 269 261 266 250 253 245 229 226
267 276 279 280 284 287 287 288 292 294 294 296 300 304 304 298 298 298 289 279 273 276 280 268 264 258 262 260 258 245 236 237
263 268 276 280 283 288 285 284 285 288 292 293 296 302 307 306 305 303 291 282 273 275 275 271 272 273 273 264 262 237 243 247
262 266 270 278 282 286 286 285 286 284 286 290 296 302 304 305 307 302 291 283 276 274 272 272 274 274 272 270 262 252 241 248
262 267 269 276 281 284 283 284 285 287 285 287 292 298 302 306 308 304 293 284 275 272 273 271 274 269 271 268 258 253 247 245
259 264 270 274 279 281 281 284 288 290 289 288 291 294 300 304 305 304 297 288 278 277 275 274 270 276 276 274 255 260 248 256
256 259 267 269 273 279 280 281 285 289 293 290 291 292 297 303 306 305 299 294 286 282 282 275 276 276 274 274 269 261 238 231
266 260 260 266 268 275 278 279 282 287 289 290 289 291 294 300 304 305 303 297 293 291 289 280 281 279 273 280 258 240 226 239
264 269 261 260 268 271 272 275 277 282 285 287 287 288 292 295 302 303 300 296 294 290 289 283 283 285 277 266 248 242 245 244
258 268 266 258 263 267 265 269 276 278 278 281 283 285 288 289 295 298 296 293 291 293 289 291 295 286 275 253 258 250 237 240
258 261 266 258 257 266 267 266 270 275 277 279 281 284 287 288 293 297 294 290 290 292 293 289 294 288 274 245 259 246 238 231
267 266 264 259 255 259 264 266 264 270 274 275 278 282 285 287 286 293 293 289 290 289 295 289 295 283 261 271 247 240 235 234
266 268 266 263 256 259 262 262 267 267 271 273 277 277 279 287 282 288 288 288 288 288 293 288 295 276 261 264 239 238 237 237
264 264 265 262 262 258 257 265 265 268 269 268 269 270 277 282 281 284 283 284 286 288 292 287 295 280 266 288 248 239 239 236
262 262 266 266 264 263 260 264 265 267 267 268 271 273 277 279 276 281 282 284 286 288 291 287 288 275 270 269 266 230 240 240
257 258 259 263 266 264 261 263 264 266 266 268 273 275 277 278 273 277 279 283 286 291 290 283 280 277 261 270 277 239 230 234
252 252 256 263 268 268 263 261 263 264 266 266 270 273 275 277 272 277 280 283 288 293 288 283 277 274 256 252 274 262 239 240
251 251 255 261 264 263 264 260 260 263 266 265 267 270 272 275 273 276 277 282 291 295 294 289 268 257 249 252 260 255 242 235
251 250 255 258 260 258 260 259 259 263 266 270 267 269 271 274 276 276 277 282 294 295 294 288 265 245 250 255 271 244 213 235